DW3015 Weather Reports


Display with metric or nautical units.
time (UTC)temp
F
wind
direction
speed
MPH
gust
MPH
rain 1hr
in
rain 24hr
in
rain mn
in
humidity
%
barometer
mb
20260505054536 58 0.0 0.0 0.00 0.00 0.00 49 1005.9
20260505053021 59 0.0 0.0 0.00 0.00 0.00 49 1005.5
20260505051518 59 0.0 0.0 0.00 0.00 0.00 46 1005.1
20260505041502 64 5 0.0 0.0 0.00 0.00 0.02 44 1004.2
20260505040002 65 5 0.0 0.0 0.00 0.00 0.02 45 1003.8
20260505034601 66 360 0.0 0.0 0.00 0.00 0.02 44 1003.5
20260505033116 66 360 0.0 0.0 0.00 0.00 0.02 45 1003.0
20260505031559 66 5 0.0 0.0 0.00 0.00 0.02 46 1002.8
20260505030059 66 15 0.0 0.0 0.00 0.00 0.02 54 1002.5
20260505024604 66 5 0.0 0.0 0.00 0.00 0.02 54 1002.3
20260505023107 65 9 0.0 0.0 0.00 0.00 0.02 59 1001.9
20260505021558 66 9 0.0 0.0 0.00 0.00 0.02 65 1001.5
20260505020057 71 350 0.0 0.0 0.00 0.00 0.01 54 1001.2
20260505014557 72 9 0.0 0.0 0.00 0.00 0.00 48 1000.6
20260505013056 73 215 0.0 0.0 0.00 0.00 0.00 54 999.7
20260505011600 75 215 0.0 0.0 0.00 0.00 0.00 51 999.4
20260505010058 76 215 0.0 0.0 0.00 0.00 0.00 48 999.2
20260505004559 78 215 0.0 0.0 0.00 0.00 0.00 45 999.1
20260505003054 79 214 0.0 0.0 0.00 0.00 0.00 42 999.1
20260505001554 81 235 0.0 0.0 0.00 0.00 0.00 40 998.9
20260505000059 81 226 0.0 0.0 0.00 0.00 0.00 41 999.1
20260504234615 82 210 0.0 0.0 0.00 0.00 0.00 38 999.0
20260504233053 83 213 0.0 0.0 0.00 0.00 0.00 36 999.0
20260504231556 84 216 0.0 0.0 0.00 0.00 0.00 38 999.0
20260504230051 84 207 0.0 0.0 0.00 0.00 0.00 36 998.8
20260504224600 84 252 0.0 0.0 0.00 0.00 0.00 35 998.8
20260504223050 85 226 0.0 0.0 0.00 0.00 0.00 33 998.7
20260504221601 85 231 0.0 0.0 0.00 0.00 0.00 35 998.6
20260504220053 85 225 0.0 0.0 0.00 0.00 0.00 35 998.6
20260504214552 86 258 0.0 0.0 0.00 0.00 0.00 31 998.7
20260504213058 87 229 0.0 0.0 0.00 0.00 0.00 27 998.7
20260504211546 87 214 0.0 0.0 0.00 0.00 0.00 31 998.6
20260504210055 88 203 0.0 0.0 0.00 0.00 0.00 31 998.8
20260504204619 88 216 0.0 0.0 0.00 0.00 0.00 34 998.9
20260504203040 86 195 0.0 0.0 0.00 0.00 0.00 35 999.1
20260504201538 86 167 0.0 0.0 0.00 0.00 0.00 34 999.2
20260504200040 86 203 0.0 0.0 0.00 0.00 0.00 36 999.3
20260504194545 86 160 0.0 0.0 0.00 0.00 0.00 34 999.5
20260504193033 85 184 0.0 0.0 0.00 0.00 0.00 35 999.4
20260504191530 84 179 0.0 0.0 0.00 0.00 0.00 36 999.7
20260504190035 84 190 0.0 0.0 0.00 0.00 0.00 36 999.7
20260504184526 83 212 0.0 0.0 0.00 0.00 0.00 37 999.7
20260504183027 83 203 0.0 0.0 0.00 0.00 0.00 39 1000.0
20260504181521 82 178 0.0 0.0 0.00 0.00 0.00 40 1000.0
20260504180018 82 158 0.0 0.0 0.00 0.00 0.00 40 1000.2
20260504174516 81 213 0.0 0.0 0.00 0.00 0.00 40 1000.2
20260504173014 80 213 0.0 0.0 0.00 0.00 0.00 42 1000.4
20260504171532 80 217 0.0 0.0 0.00 0.00 0.00 43 1000.5
20260504081550 56 13 0.0 0.0 0.00 0.00 0.00 73 1003.3